Time,TemperatureF,DewpointF,PressureIn,WindDirection,WindDirectionDegrees,WindSpeedMPH,WindSpeedGustMPH,Humidity,HourlyPrecipIn,Conditions,Clouds,dailyrainin,SoftwareType,DateUTC
2013-06-01 00:01:00,34.0,14.0,30.13,East,91,0.0,-999.0,43,-99.99,,,-99.99,,2013-06-01 06:01:00,
2013-06-01 00:12:00,34.0,14.0,30.13,East,91,0.0,-999.0,43,-99.99,,,-99.99,,2013-06-01 06:12:00,
2013-06-01 00:22:00,34.0,14.0,30.13,NE,49,1.0,-999.0,43,-99.99,,,-99.99,,2013-06-01 06:22:00,
2013-06-01 00:32:00,34.0,14.0,30.13,ENE,65,1.0,-999.0,44,-99.99,,,-99.99,,2013-06-01 06:32:00,
2013-06-01 00:42:00,34.0,14.0,30.12,ENE,60,1.0,-999.0,44,-99.99,,,-99.99,,2013-06-01 06:42:00,
2013-06-01 00:52:00,34.0,14.0,30.12,ENE,60,1.0,-999.0,44,-99.99,,,-99.99,,2013-06-01 06:52:00,
2013-06-01 01:01:00,34.0,14.0,30.12,West,259,1.0,-999.0,44,-99.99,,,-99.99,,2013-06-01 07:01:00,
2013-06-01 01:11:00,34.0,14.0,30.12,West,259,1.0,-999.0,44,-99.99,,,-99.99,,2013-06-01 07:11:00,
2013-06-01 01:21:00,33.0,14.0,30.12,SSE,157,0.0,-999.0,45,-99.99,,,-99.99,,2013-06-01 07:21:00,
2013-06-01 01:31:00,33.0,15.0,30.12,ENE,62,0.0,-999.0,46,-99.99,,,-99.99,,2013-06-01 07:31:00,
2013-06-01 01:42:00,32.0,14.0,30.12,East,80,0.0,-999.0,47,-99.99,,,-99.99,,2013-06-01 07:42:00,
2013-06-01 01:52:00,32.0,14.0,30.12,East,80,0.0,-999.0,47,-99.99,,,-99.99,,2013-06-01 07:52:00,
2013-06-01 02:02:00,31.0,14.0,30.12,NNW,327,0.0,-999.0,49,-99.99,,,-99.99,,2013-06-01 08:02:00,
2013-06-01 02:11:00,31.0,15.0,30.12,NNW,327,0.0,-999.0,50,-99.99,,,-99.99,,2013-06-01 08:11:00,
2013-06-01 02:21:00,31.0,15.0,30.12,NNW,327,0.0,-999.0,50,-99.99,,,-99.99,,2013-06-01 08:21:00,
2013-06-01 02:32:00,30.0,15.0,30.12,WNW,298,1.0,-999.0,53,-99.99,,,-99.99,,2013-06-01 08:32:00,
2013-06-01 02:42:00,29.0,14.0,30.12,North,5,0.0,-999.0,54,-99.99,,,-99.99,,2013-06-01 08:42:00,
2013-06-01 02:52:00,29.0,14.0,30.12,North,5,0.0,-999.0,54,-99.99,,,-99.99,,2013-06-01 08:52:00,
2013-06-01 03:01:00,30.0,15.0,30.13,East,95,1.0,-999.0,54,-99.99,,,-99.99,,2013-06-01 09:01:00,
2013-06-01 03:12:00,30.0,15.0,30.13,East,95,1.0,-999.0,54,-99.99,,,-99.99,,2013-06-01 09:12:00,
2013-06-01 03:21:00,30.0,15.0,30.14,East,94,0.0,-999.0,54,-99.99,,,-99.99,,2013-06-01 09:21:00,
2013-06-01 03:33:00,30.0,16.0,30.14,East,94,0.0,-999.0,55,-99.99,,,-99.99,,2013-06-01 09:33:00,
2013-06-01 03:42:00,30.0,16.0,30.14,East,94,0.0,-999.0,55,-99.99,,,-99.99,,2013-06-01 09:42:00,
2013-06-01 03:53:00,30.0,16.0,30.14,East,100,1.0,-999.0,55,-99.99,,,-99.99,,2013-06-01 09:53:00,
2013-06-01 04:02:00,30.0,16.0,30.15,NNW,331,0.0,-999.0,55,-99.99,,,-99.99,,2013-06-01 10:02:00,
2013-06-01 04:13:00,30.0,16.0,30.15,NNW,331,0.0,-999.0,55,-99.99,,,-99.99,,2013-06-01 10:13:00,
2013-06-01 04:22:00,30.0,16.0,30.14,SE,128,1.0,-999.0,56,-99.99,,,-99.99,,2013-06-01 10:22:00,
2013-06-01 04:33:00,30.0,17.0,30.14,South,190,1.0,-999.0,57,-99.99,,,-99.99,,2013-06-01 10:33:00,
2013-06-01 04:42:00,30.0,17.0,30.14,South,190,1.0,-999.0,57,-99.99,,,-99.99,,2013-06-01 10:42:00,
2013-06-01 04:52:00,30.0,17.0,30.14,South,184,1.0,-999.0,59,-99.99,,,-99.99,,2013-06-01 10:52:00,
2013-06-01 05:02:00,30.0,17.0,30.14,ENE,61,1.0,-999.0,59,-99.99,,,-99.99,,2013-06-01 11:02:00,
2013-06-01 05:11:00,30.0,17.0,30.14,ENE,61,1.0,-999.0,59,-99.99,,,-99.99,,2013-06-01 11:11:00,
2013-06-01 05:21:00,30.0,17.0,30.15,East,92,1.0,-999.0,58,-99.99,,,-99.99,,2013-06-01 11:21:00,
2013-06-01 05:32:00,30.0,17.0,30.14,ESE,108,2.0,-999.0,59,-99.99,,,-99.99,,2013-06-01 11:32:00,
2013-06-01 05:42:00,30.0,17.0,30.14,ESE,108,2.0,-999.0,59,-99.99,,,-99.99,,2013-06-01 11:42:00,
2013-06-01 05:52:00,30.0,17.0,30.15,SE,139,2.0,-999.0,58,-99.99,,,-99.99,,2013-06-01 11:52:00,
2013-06-01 06:01:00,30.0,17.0,30.16,East,96,2.0,-999.0,58,-99.99,,,-99.99,,2013-06-01 12:01:00,
2013-06-01 06:12:00,30.0,17.0,30.16,East,96,2.0,-999.0,58,-99.99,,,-99.99,,2013-06-01 12:12:00,
2013-06-01 06:21:00,30.0,17.0,30.16,East,91,1.0,-999.0,57,-99.99,,,-99.99,,2013-06-01 12:21:00,
2013-06-01 06:32:00,30.0,17.0,30.16,ESE,120,4.0,-999.0,58,-99.99,,,-99.99,,2013-06-01 12:32:00,
2013-06-01 06:42:00,31.0,18.0,30.17,NE,46,2.0,-999.0,57,-99.99,,,-99.99,,2013-06-01 12:42:00,
2013-06-01 06:52:00,31.0,18.0,30.17,NE,46,2.0,-999.0,57,-99.99,,,-99.99,,2013-06-01 12:52:00,
2013-06-01 07:01:00,31.0,18.0,30.18,SSW,198,1.0,-999.0,57,-99.99,,,-99.99,,2013-06-01 13:01:00,
2013-06-01 07:11:00,31.0,18.0,30.18,SSW,198,1.0,-999.0,57,-99.99,,,-99.99,,2013-06-01 13:11:00,
2013-06-01 07:22:00,32.0,19.0,30.19,South,190,3.0,-999.0,57,-99.99,,,-99.99,,2013-06-01 13:22:00,
2013-06-01 07:32:00,32.0,18.0,30.19,NE,37,2.0,-999.0,56,-99.99,,,-99.99,,2013-06-01 13:32:00,
2013-06-01 07:42:00,33.0,18.0,30.18,SSW,205,1.0,-999.0,53,-99.99,,,-99.99,,2013-06-01 13:42:00,
2013-06-01 07:52:00,33.0,18.0,30.18,SSW,205,1.0,-999.0,53,-99.99,,,-99.99,,2013-06-01 13:52:00,
2013-06-01 08:02:00,34.0,17.0,30.18,SW,234,1.0,-999.0,50,-99.99,,,-99.99,,2013-06-01 14:02:00,
2013-06-01 08:11:00,34.0,17.0,30.18,SW,234,1.0,-999.0,50,-99.99,,,-99.99,,2013-06-01 14:11:00,
2013-06-01 08:21:00,36.0,19.0,30.19,SW,218,1.0,-999.0,49,-99.99,,,-99.99,,2013-06-01 14:21:00,
2013-06-01 08:32:00,37.0,18.0,30.20,WNW,294,3.0,-999.0,46,-99.99,,,-99.99,,2013-06-01 14:32:00,
2013-06-01 08:42:00,37.0,18.0,30.20,WNW,294,3.0,-999.0,46,-99.99,,,-99.99,,2013-06-01 14:42:00,
2013-06-01 08:52:00,38.0,19.0,30.20,South,188,2.0,-999.0,46,-99.99,,,-99.99,,2013-06-01 14:52:00,
2013-06-01 09:02:00,39.0,19.0,30.20,WSW,252,2.0,-999.0,44,-99.99,,,-99.99,,2013-06-01 15:02:00,
2013-06-01 09:11:00,39.0,19.0,30.20,WSW,252,2.0,-999.0,44,-99.99,,,-99.99,,2013-06-01 15:11:00,
2013-06-01 09:21:00,41.0,21.0,30.20,WSW,241,1.0,-999.0,44,-99.99,,,-99.99,,2013-06-01 15:21:00,
2013-06-01 09:33:00,42.0,21.0,30.20,SW,220,2.0,-999.0,43,-99.99,,,-99.99,,2013-06-01 15:33:00,
2013-06-01 09:43:00,42.0,21.0,30.20,SW,220,2.0,-999.0,43,-99.99,,,-99.99,,2013-06-01 15:43:00,
2013-06-01 09:53:00,42.0,21.0,30.20,WSW,246,3.0,-999.0,43,-99.99,,,-99.99,,2013-06-01 15:53:00,
2013-06-01 10:03:00,43.0,23.0,30.19,West,279,3.0,-999.0,44,-99.99,,,-99.99,,2013-06-01 16:03:00,
2013-06-01 10:12:00,43.0,23.0,30.19,West,279,3.0,-999.0,44,-99.99,,,-99.99,,2013-06-01 16:12:00,
2013-06-01 10:23:00,44.0,22.0,30.19,SW,225,3.0,-999.0,42,-99.99,,,-99.99,,2013-06-01 16:23:00,
2013-06-01 10:33:00,44.0,22.0,30.18,SSW,195,3.0,-999.0,41,-99.99,,,-99.99,,2013-06-01 16:33:00,
2013-06-01 10:42:00,45.0,22.0,30.17,North,9,2.0,-999.0,39,-99.99,,,-99.99,,2013-06-01 16:42:00,
2013-06-01 10:52:00,45.0,22.0,30.17,North,9,2.0,-999.0,39,-99.99,,,-99.99,,2013-06-01 16:52:00,
2013-06-01 11:02:00,46.0,21.0,30.17,WSW,238,2.0,-999.0,36,-99.99,,,-99.99,,2013-06-01 17:02:00,
2013-06-01 11:12:00,46.0,21.0,30.17,WSW,238,2.0,-999.0,36,-99.99,,,-99.99,,2013-06-01 17:12:00,
2013-06-01 11:22:00,47.0,21.0,30.17,South,184,1.0,-999.0,35,-99.99,,,-99.99,,2013-06-01 17:22:00,
2013-06-01 11:32:00,48.0,21.0,30.17,South,185,2.0,-999.0,34,-99.99,,,-99.99,,2013-06-01 17:32:00,
2013-06-01 11:42:00,48.0,21.0,30.17,South,185,2.0,-999.0,34,-99.99,,,-99.99,,2013-06-01 17:42:00,
2013-06-01 11:52:00,49.0,22.0,30.17,SSE,151,2.0,-999.0,34,-99.99,,,-99.99,,2013-06-01 17:52:00,
2013-06-01 12:01:00,49.0,21.0,30.18,SSW,205,2.0,-999.0,33,-99.99,,,-99.99,,2013-06-01 18:01:00,
2013-06-01 12:12:00,49.0,21.0,30.18,SSW,205,2.0,-999.0,33,-99.99,,,-99.99,,2013-06-01 18:12:00,
2013-06-01 12:21:00,50.0,23.0,30.17,NE,51,2.0,-999.0,34,-99.99,,,-99.99,,2013-06-01 18:21:00,
2013-06-01 12:32:00,50.0,21.0,30.18,WSW,248,3.0,-999.0,32,-99.99,,,-99.99,,2013-06-01 18:32:00,
2013-06-01 12:42:00,50.0,21.0,30.18,WSW,248,3.0,-999.0,32,-99.99,,,-99.99,,2013-06-01 18:42:00,
2013-06-01 12:51:00,50.0,23.0,30.17,SW,216,2.0,-999.0,34,-99.99,,,-99.99,,2013-06-01 18:51:00,
2013-06-01 13:02:00,51.0,24.0,30.17,SSW,200,2.0,-999.0,34,-99.99,,,-99.99,,2013-06-01 19:02:00,
2013-06-01 13:11:00,52.0,22.0,30.17,ESE,118,2.0,-999.0,31,-99.99,,,-99.99,,2013-06-01 19:11:00,
2013-06-01 13:21:00,52.0,22.0,30.17,ESE,118,2.0,-999.0,31,-99.99,,,-99.99,,2013-06-01 19:21:00,
2013-06-01 13:32:00,52.0,21.0,30.16,WSW,240,2.0,-999.0,29,-99.99,,,-99.99,,2013-06-01 19:32:00,
2013-06-01 13:42:00,52.0,21.0,30.16,WSW,240,2.0,-999.0,29,-99.99,,,-99.99,,2013-06-01 19:42:00,
2013-06-01 13:52:00,52.0,23.0,30.16,ESE,119,2.0,-999.0,32,-99.99,,,-99.99,,2013-06-01 19:52:00,
2013-06-01 14:01:00,53.0,23.0,30.16,WNW,288,2.0,-999.0,31,-99.99,,,-99.99,,2013-06-01 20:01:00,
2013-06-01 14:12:00,53.0,23.0,30.16,WNW,288,2.0,-999.0,31,-99.99,,,-99.99,,2013-06-01 20:12:00,
2013-06-01 14:21:00,53.0,23.0,30.15,ENE,63,2.0,-999.0,31,-99.99,,,-99.99,,2013-06-01 20:21:00,
2013-06-01 14:32:00,53.0,23.0,30.14,West,265,3.0,-999.0,31,-99.99,,,-99.99,,2013-06-01 20:32:00,
2013-06-01 14:41:00,54.0,24.0,30.14,SW,234,2.0,-999.0,31,-99.99,,,-99.99,,2013-06-01 20:41:00,
2013-06-01 14:52:00,54.0,24.0,30.14,SW,234,2.0,-999.0,31,-99.99,,,-99.99,,2013-06-01 20:52:00,
2013-06-01 15:01:00,54.0,25.0,30.14,ESE,123,2.0,-999.0,32,-99.99,,,-99.99,,2013-06-01 21:01:00,
2013-06-01 15:11:00,54.0,22.0,30.14,SE,144,3.0,-999.0,29,-99.99,,,-99.99,,2013-06-01 21:11:00,
2013-06-01 15:21:00,54.0,22.0,30.14,SE,144,3.0,-999.0,29,-99.99,,,-99.99,,2013-06-01 21:21:00,
2013-06-01 15:33:00,54.0,23.0,30.13,SSW,205,2.0,-999.0,30,-99.99,,,-99.99,,2013-06-01 21:33:00,
2013-06-01 15:42:00,54.0,23.0,30.13,SSW,205,2.0,-999.0,30,-99.99,,,-99.99,,2013-06-01 21:42:00,
2013-06-01 15:53:00,55.0,23.0,30.13,ENE,59,3.0,-999.0,29,-99.99,,,-99.99,,2013-06-01 21:53:00,
2013-06-01 16:03:00,55.0,24.0,30.12,SE,146,3.0,-999.0,30,-99.99,,,-99.99,,2013-06-01 22:03:00,
2013-06-01 16:12:00,55.0,23.0,30.13,SE,127,2.0,-999.0,29,-99.99,,,-99.99,,2013-06-01 22:12:00,
2013-06-01 16:23:00,55.0,23.0,30.13,SE,127,2.0,-999.0,29,-99.99,,,-99.99,,2013-06-01 22:23:00,
2013-06-01 16:33:00,55.0,23.0,30.13,SE,146,2.0,-999.0,29,-99.99,,,-99.99,,2013-06-01 22:33:00,
2013-06-01 16:42:00,55.0,24.0,30.13,SW,234,2.0,-999.0,30,-99.99,,,-99.99,,2013-06-01 22:42:00,
2013-06-01 16:53:00,55.0,24.0,30.13,SW,234,2.0,-999.0,30,-99.99,,,-99.99,,2013-06-01 22:53:00,
2013-06-01 17:02:00,55.0,24.0,30.12,SW,229,2.0,-999.0,30,-99.99,,,-99.99,,2013-06-01 23:02:00,
2013-06-01 17:11:00,55.0,24.0,30.12,SSW,200,1.0,-999.0,30,-99.99,,,-99.99,,2013-06-01 23:11:00,
2013-06-01 17:22:00,55.0,24.0,30.12,SSW,200,1.0,-999.0,30,-99.99,,,-99.99,,2013-06-01 23:22:00,
2013-06-01 17:32:00,54.0,23.0,30.12,SSE,155,2.0,-999.0,30,-99.99,,,-99.99,,2013-06-01 23:32:00,
2013-06-01 17:42:00,54.0,23.0,30.12,SSE,155,2.0,-999.0,30,-99.99,,,-99.99,,2013-06-01 23:42:00,
2013-06-01 17:52:00,54.0,24.0,30.11,SSW,196,1.0,-999.0,31,-99.99,,,-99.99,,2013-06-01 23:52:00,
2013-06-01 18:02:00,54.0,24.0,30.12,East,99,1.0,-999.0,31,-99.99,,,-99.99,,2013-06-02 00:02:00,
2013-06-01 18:11:00,54.0,24.0,30.12,East,99,1.0,-999.0,31,-99.99,,,-99.99,,2013-06-02 00:11:00,
2013-06-01 18:21:00,54.0,23.0,30.11,ESE,119,2.0,-999.0,30,-99.99,,,-99.99,,2013-06-02 00:21:00,
2013-06-01 18:32:00,55.0,23.0,30.11,East,84,1.0,-999.0,29,-99.99,,,-99.99,,2013-06-02 00:32:00,
2013-06-01 18:41:00,55.0,23.0,30.11,East,84,1.0,-999.0,29,-99.99,,,-99.99,,2013-06-02 00:41:00,
2013-06-01 18:51:00,55.0,23.0,30.11,East,80,1.0,-999.0,29,-99.99,,,-99.99,,2013-06-02 00:51:00,
2013-06-01 19:01:00,53.0,22.0,30.11,ESE,115,1.0,-999.0,29,-99.99,,,-99.99,,2013-06-02 01:01:00,
2013-06-01 19:11:00,53.0,22.0,30.11,ESE,115,1.0,-999.0,29,-99.99,,,-99.99,,2013-06-02 01:11:00,
2013-06-01 19:21:00,52.0,21.0,30.11,WSW,241,1.0,-999.0,29,-99.99,,,-99.99,,2013-06-02 01:21:00,
2013-06-01 19:32:00,52.0,22.0,30.12,WSW,244,0.0,-999.0,30,-99.99,,,-99.99,,2013-06-02 01:32:00,
2013-06-01 19:41:00,52.0,22.0,30.12,WSW,244,0.0,-999.0,30,-99.99,,,-99.99,,2013-06-02 01:41:00,
2013-06-01 19:52:00,51.0,22.0,30.12,WSW,242,0.0,-999.0,32,-99.99,,,-99.99,,2013-06-02 01:52:00,
2013-06-01 20:01:00,50.0,23.0,30.13,WSW,242,0.0,-999.0,34,-99.99,,,-99.99,,2013-06-02 02:01:00,
2013-06-01 20:12:00,50.0,23.0,30.13,WSW,242,0.0,-999.0,34,-99.99,,,-99.99,,2013-06-02 02:12:00,
2013-06-01 20:21:00,49.0,25.0,30.13,SSE,159,0.0,-999.0,38,-99.99,,,-99.99,,2013-06-02 02:21:00,
2013-06-01 20:32:00,47.0,25.0,30.14,South,175,0.0,-999.0,41,-99.99,,,-99.99,,2013-06-02 02:32:00,
2013-06-01 20:41:00,47.0,25.0,30.14,South,175,0.0,-999.0,41,-99.99,,,-99.99,,2013-06-02 02:41:00,
2013-06-01 20:51:00,46.0,25.0,30.14,SE,129,0.0,-999.0,44,-99.99,,,-99.99,,2013-06-02 02:51:00,
2013-06-01 21:02:00,45.0,25.0,30.14,SE,129,0.0,-999.0,45,-99.99,,,-99.99,,2013-06-02 03:02:00,
2013-06-01 21:11:00,45.0,25.0,30.14,SE,129,0.0,-999.0,45,-99.99,,,-99.99,,2013-06-02 03:11:00,
2013-06-01 21:21:00,43.0,25.0,30.16,SE,129,0.0,-999.0,48,-99.99,,,-99.99,,2013-06-02 03:21:00,
2013-06-01 21:33:00,41.0,24.0,30.16,SE,129,0.0,-999.0,51,-99.99,,,-99.99,,2013-06-02 03:33:00,
2013-06-01 21:43:00,41.0,24.0,30.16,SE,129,0.0,-999.0,51,-99.99,,,-99.99,,2013-06-02 03:43:00,
2013-06-01 21:52:00,41.0,25.0,30.17,ESE,116,0.0,-999.0,53,-99.99,,,-99.99,,2013-06-02 03:52:00,
2013-06-01 22:02:00,40.0,25.0,30.18,ESE,116,0.0,-999.0,54,-99.99,,,-99.99,,2013-06-02 04:02:00,
2013-06-01 22:13:00,40.0,25.0,30.18,ESE,116,0.0,-999.0,54,-99.99,,,-99.99,,2013-06-02 04:13:00,
2013-06-01 22:23:00,39.0,25.0,30.19,ESE,116,0.0,-999.0,56,-99.99,,,-99.99,,2013-06-02 04:23:00,
2013-06-01 22:33:00,37.0,24.0,30.19,ESE,116,0.0,-999.0,59,-99.99,,,-99.99,,2013-06-02 04:33:00,
2013-06-01 22:42:00,37.0,24.0,30.19,ESE,116,0.0,-999.0,59,-99.99,,,-99.99,,2013-06-02 04:42:00,
2013-06-01 22:52:00,36.0,23.0,30.19,ESE,116,0.0,-999.0,60,-99.99,,,-99.99,,2013-06-02 04:52:00,
2013-06-01 23:02:00,34.0,22.0,30.18,ESE,116,0.0,-999.0,62,-99.99,,,-99.99,,2013-06-02 05:02:00,
2013-06-01 23:12:00,34.0,22.0,30.18,ESE,116,0.0,-999.0,62,-99.99,,,-99.99,,2013-06-02 05:12:00,
2013-06-01 23:22:00,33.0,22.0,30.18,ESE,116,0.0,-999.0,63,-99.99,,,-99.99,,2013-06-02 05:22:00,
2013-06-01 23:32:00,32.0,22.0,30.18,ESE,116,0.0,-999.0,66,-99.99,,,-99.99,,2013-06-02 05:32:00,
2013-06-01 23:42:00,32.0,22.0,30.18,ESE,116,0.0,-999.0,66,-99.99,,,-99.99,,2013-06-02 05:42:00,
2013-06-01 23:52:00,31.0,21.0,30.18,ESE,116,0.0,-999.0,67,-99.99,,,-99.99,,2013-06-02 05:52:00,